EN

Hourly Weather Am Bach

Today, 16 January, Saturday

Time Temperature Precipitation Wind Pressure Humidity
00:00 -9°C° 0 mm 2 mps 682 mmHg 92%
01:00 -9°C° 0 mm 1 mps 682 mmHg 91%
02:00 -9°C° 0 mm 1 mps 682 mmHg 89%
03:00 -9°C° 0 mm 1 mps 682 mmHg 88%
04:00 -9°C° 0 mm 1 mps 682 mmHg 86%
05:00 -9°C° 0 mm 1 mps 682 mmHg 84%
06:00 -9°C° 0 mm 1 mps 682 mmHg 82%
07:00 -8°C° 0 mm 0 mps 683 mmHg 81%
08:00 -7°C° 0 mm 0 mps 683 mmHg 79%
09:00 -6°C° 0 mm 0 mps 683 mmHg 78%
10:00 -5°C° 0 mm 0 mps 682 mmHg 77%
11:00 -4°C° 0 mm 0 mps 682 mmHg 75%
12:00 -2°C° 0 mm 1 mps 682 mmHg 73%
13:00 -2°C° 0 mm 1 mps 682 mmHg 77%
14:00 -2°C° 0 mm 1 mps 681 mmHg 80%
15:00 -3°C° 0 mm 0 mps 681 mmHg 84%
16:00 -3°C° 0 mm 1 mps 681 mmHg 83%
17:00 -3°C° 0 mm 1 mps 681 mmHg 83%
18:00 -4°C° 0 mm 1 mps 681 mmHg 82%
19:00 -5°C° 0 mm 2 mps 681 mmHg 82%
20:00 -5°C° 0 mm 2 mps 681 mmHg 82%
21:00 -4°C° 0 mm 2 mps 681 mmHg 82%
22:00 -4°C° 0.3 mm 2 mps 680 mmHg 86%
23:00 -5°C° 0.3 mm 3 mps 680 mmHg 89%

Tomorrow, 17 January, Sunday

Time Temperature Precipitation Wind Pressure Humidity
00:00 -5°C° 0.3 mm 3 mps 680 mmHg 93%
01:00 -4°C° 0.4 mm 3 mps 679 mmHg 94%
02:00 -3°C° 0.4 mm 2 mps 679 mmHg 95%
03:00 -2°C° 0.4 mm 2 mps 678 mmHg 95%
04:00 -2°C° 0.2 mm 2 mps 678 mmHg 96%
05:00 -2°C° 0.2 mm 2 mps 678 mmHg 96%
06:00 -2°C° 0.2 mm 2 mps 678 mmHg 97%
07:00 -2°C° 0.2 mm 2 mps 679 mmHg 97%
08:00 -1°C° 0.2 mm 2 mps 679 mmHg 97%
09:00 -1°C° 0.2 mm 2 mps 679 mmHg 97%
10:00 -1°C° 0.5 mm 2 mps 679 mmHg 97%
11:00 -1°C° 0.5 mm 3 mps 679 mmHg 97%
12:00 -1°C° 0.5 mm 3 mps 679 mmHg 97%
13:00 -1°C° 1 mm 3 mps 679 mmHg 97%
14:00 -1°C° 1 mm 3 mps 679 mmHg 97%
15:00 -2°C° 1 mm 3 mps 679 mmHg 98%
16:00 -2°C° 1 mm 2 mps 680 mmHg 97%
17:00 -3°C° 1 mm 2 mps 681 mmHg 96%
18:00 -1°C° 1 mm 1 mps 682 mmHg 96%
19:00 -2°C° 0.2 mm 1 mps 682 mmHg 96%
20:00 -3°C° 0.2 mm 1 mps 682 mmHg 95%
21:00 -4°C° 0.2 mm 1 mps 683 mmHg 95%
22:00 -4°C° 0 mm 1 mps 683 mmHg 94%
23:00 -4°C° 0 mm 1 mps 683 mmHg 93%

Day after tomorrow, 18 January, Monday

Time Temperature Precipitation Wind Pressure Humidity
00:00 -6°C° 0 mm 1 mps 683 mmHg 92%
01:00 -6°C° 0 mm 1 mps 683 mmHg 91%
02:00 -6°C° 0 mm 1 mps 683 mmHg 90%
03:00 -7°C° 0 mm 1 mps 683 mmHg 89%
04:00 -7°C° 0 mm 1 mps 683 mmHg 89%
05:00 -7°C° 0 mm 1 mps 683 mmHg 89%
06:00 -7°C° 0 mm 1 mps 683 mmHg 89%
07:00 -6°C° 0 mm 1 mps 684 mmHg 88%
08:00 -4°C° 0 mm 1 mps 684 mmHg 87%
09:00 -3°C° 0 mm 1 mps 684 mmHg 87%
10:00 -2°C° 0 mm 1 mps 684 mmHg 86%
11:00 -2°C° 0 mm 0 mps 684 mmHg 85%
12:00 -1°C° 0 mm 0 mps 684 mmHg 84%
13:00 -1°C° 0 mm 0 mps 684 mmHg 86%
14:00 -1°C° 0 mm 0 mps 684 mmHg 88%
15:00 -2°C° 0 mm 0 mps 683 mmHg 91%
16:00 -3°C° 0 mm 0 mps 683 mmHg 90%
17:00 -3°C° 0 mm 1 mps 684 mmHg 90%
18:00 -4°C° 0 mm 1 mps 684 mmHg 89%
19:00 -4°C° 0 mm 1 mps 684 mmHg 87%
20:00 -4°C° 0 mm 1 mps 683 mmHg 84%
21:00 -4°C° 0 mm 1 mps 683 mmHg 82%
22:00 -4°C° 0 mm 1 mps 683 mmHg 80%
23:00 -4°C° 0 mm 1 mps 683 mmHg 78%

19 January, Tuesday

Time Temperature Precipitation Wind Pressure Humidity
00:00 -4°C° 0 mm 1 mps 683 mmHg 77%
01:00 -4°C° 0 mm 1 mps 682 mmHg 76%
02:00 -4°C° 0 mm 1 mps 682 mmHg 75%
03:00 -4°C° 0 mm 1 mps 681 mmHg 74%
04:00 -4°C° 0 mm 1 mps 681 mmHg 74%
05:00 -6°C° 0 mm 2 mps 681 mmHg 73%
06:00 -5°C° 0 mm 2 mps 681 mmHg 73%
07:00 -4°C° 0 mm 2 mps 681 mmHg 73%
08:00 -3°C° 0 mm 2 mps 681 mmHg 74%
09:00 -2°C° 0 mm 2 mps 681 mmHg 74%
10:00 +1°C° 0 mm 1 mps 681 mmHg 77%
11:00 +3°C° 0 mm 1 mps 680 mmHg 80%
12:00 +4°C° 0 mm 1 mps 680 mmHg 83%
13:00 +3°C° 0 mm 1 mps 680 mmHg 83%
14:00 +3°C° 0 mm 1 mps 679 mmHg 83%
15:00 +2°C° 0 mm 1 mps 679 mmHg 83%
16:00 +1°C° 0 mm 1 mps 679 mmHg 80%
17:00 -2°C° 0 mm 2 mps 679 mmHg 77%
18:00 -3°C° 0 mm 2 mps 679 mmHg 74%
19:00 -3°C° 0 mm 2 mps 679 mmHg 74%
20:00 -3°C° 0 mm 2 mps 678 mmHg 74%
21:00 -3°C° 0 mm 2 mps 678 mmHg 74%
22:00 -3°C° 0 mm 2 mps 678 mmHg 73%
23:00 -3°C° 0 mm 2 mps 678 mmHg 72%

20 January, Wednesday

Time Temperature Precipitation Wind Pressure Humidity
00:00 -5°C° 0 mm 3 mps 677 mmHg 72%
01:00 -3°C° 0 mm 2 mps 677 mmHg 71%
02:00 -3°C° 0 mm 2 mps 676 mmHg 71%
03:00 -3°C° 0 mm 2 mps 676 mmHg 71%
04:00 -3°C° 0 mm 2 mps 676 mmHg 71%
05:00 -3°C° 0 mm 2 mps 675 mmHg 71%
06:00 -3°C° 0 mm 2 mps 675 mmHg 71%
07:00 -2°C° 0 mm 2 mps 675 mmHg 72%
08:00 -1°C° 0 mm 2 mps 675 mmHg 72%
09:00 -1°C° 0 mm 2 mps 675 mmHg 73%
10:00 +1°C° 0 mm 2 mps 674 mmHg 76%
11:00 +2°C° 0 mm 2 mps 674 mmHg 78%
12:00 +3°C° 0 mm 2 mps 674 mmHg 81%
13:00 +3°C° 0 mm 2 mps 673 mmHg 81%
14:00 +2°C° 0 mm 2 mps 672 mmHg 82%
15:00 +2°C° 0 mm 2 mps 672 mmHg 82%
16:00 -1°C° 0 mm 2 mps 671 mmHg 81%
17:00 -2°C° 0 mm 2 mps 671 mmHg 81%
18:00 -4°C° 0 mm 3 mps 671 mmHg 80%
19:00 -3°C° 0 mm 2 mps 671 mmHg 80%
20:00 -2°C° 0 mm 2 mps 671 mmHg 80%
21:00 -2°C° 0 mm 2 mps 671 mmHg 81%
22:00 -2°C° 0 mm 2 mps 671 mmHg 81%
23:00 -2°C° 0 mm 2 mps 671 mmHg 81%

21 January, Thursday

Time Temperature Precipitation Wind Pressure Humidity
00:00 -2°C° 0 mm 3 mps 671 mmHg 82%
01:00 -2°C° 0 mm 3 mps 670 mmHg 82%
02:00 -2°C° 0 mm 3 mps 670 mmHg 82%
03:00 -2°C° 0 mm 3 mps 670 mmHg 82%
04:00 -2°C° 0 mm 3 mps 670 mmHg 82%
05:00 -2°C° 0 mm 3 mps 669 mmHg 81%
06:00 -2°C° 0 mm 3 mps 669 mmHg 81%
07:00 -1°C° 0 mm 3 mps 670 mmHg 81%
08:00 0°C° 0 mm 3 mps 671 mmHg 82%
09:00 +1°C° 0 mm 3 mps 671 mmHg 83%
10:00 +1°C° 0.3 mm 3 mps 672 mmHg 86%
11:00 +1°C° 0.3 mm 3 mps 672 mmHg 90%
12:00 +3°C° 0.3 mm 2 mps 673 mmHg 93%
13:00 +2°C° 0.5 mm 2 mps 672 mmHg 94%
14:00 +2°C° 0.5 mm 1 mps 672 mmHg 96%
15:00 +2°C° 0.5 mm 1 mps 672 mmHg 97%
16:00 +1°C° 0.1 mm 1 mps 672 mmHg 96%
17:00 +1°C° 0.1 mm 1 mps 672 mmHg 96%
18:00 +1°C° 0.1 mm 1 mps 672 mmHg 95%
19:00 +1°C° 0 mm 1 mps 671 mmHg 94%
20:00 0°C° 0 mm 1 mps 671 mmHg 93%
21:00 0°C° 0 mm 1 mps 671 mmHg 92%
22:00 0°C° 0 mm 1 mps 671 mmHg 90%
23:00 0°C° 0 mm 1 mps 670 mmHg 89%
Show more